Regional Weather Roundup
Issued by NWS

Home | Current Version | Previous Version | Graphics & Text | Print | Product List | Glossary On
Versions: 1 2 3 4 5 6 7 8 9 10 11 12 13 14 15 16 17 18 19 20 21 22 23 24 25 26 27 28 29 30 31 32 33 34 35 36 37 38 39 40 41 42 43 44 45 46 47 48 49 50
000
ASUS44 KMEG 232300
RWRTN
TENNESSEE HOURLY STATE WEATHER ROUNDUP
NATIONAL WEATHER SERVICE MEMPHIS TN
600 PM CDT MON APR 23 2018

TNZ002-004-019-021-049-052-054-088>092-240000-
WEST TENNESSEE

CITY           SKY/WX    TMP DP  RH WIND       PRES   REMARKS
MEMPHIS INTL   LGT RAIN  56  55  97 NW6       29.89R
NWS MEMPHIS      N/A     56 N/A N/A MISG        N/A
JACKSON        LGT RAIN  59  57  93 CALM      29.89S
DYERSBURG      LGT RAIN  57  56  96 W5        29.89S
$$

TNZ008-025-027-028-033-062-065-066-240000-
NORTH MIDDLE TENNESSEE

CITY           SKY/WX    TMP DP  RH WIND       PRES   REMARKS
NASHVILLE      PTSUNNY   61  58  90 E9        29.90R
CLARKSVILLE    CLOUDY    65  54  67 E10       29.88S
SMYRNA         CLOUDY    60  57  89 E8        29.91S
CROSSVILLE     CLOUDY    55  51  86 E7        29.94F
$$

TNZ061-075-076-078-094-096-097-240000-
SOUTH MIDDLE TENNESSEE

CITY           SKY/WX    TMP DP  RH WIND       PRES   REMARKS
$$

TNZ017-018-042-046-047-240000-
NORTHEAST TENNESSEE

CITY           SKY/WX    TMP DP  RH WIND       PRES   REMARKS
TRI CITIES     PTSUNNY   61  48  62 E14G33    30.05F
$$

TNZ012-013-036-069-073-074-240000-
CENTRAL EAST TENNESSEE

CITY           SKY/WX    TMP DP  RH WIND       PRES   REMARKS
KNOXVILLE      PTSUNNY   59  57  93 NE8       29.92F
OAK RIDGE      CLOUDY    58  56  93 CALM      29.96F
$$

TNZ083-085-099-240000-
SOUTHEAST TENNESSEE

CITY           SKY/WX    TMP DP  RH WIND       PRES   REMARKS
CHATTANOOGA    CLOUDY    60  57  89 NW9       29.88S
$$

SKY/WX REPORTED AS FAIR MEANS FEW OR NO CLOUDS BELOW
12 THOUSAND FEET.




USA.gov is the U.S. government's official web portal to all federal, state and local government web resources and services.